When you browse on this site, cookies collect data to enhance your experience and personalize the content and advertising you see.
Visit our Privacy Policy to learn more. By continuing to use the site, you agree to this use of cookies and data.

Stündliche Wetter Bolshie Kirilly

Heute, 27 September, Sonntag

Zeit Temperatur Niederschläge Wind Luftdruck Luftfeuchtigkeit
00:00 +15°C° 0 mm 5 m/S 745 mmHg 57%
01:00 +14°C° 0 mm 5 m/S 745 mmHg 57%
02:00 +14°C° 0 mm 5 m/S 745 mmHg 57%
03:00 +14°C° 0 mm 5 m/S 745 mmHg 58%
04:00 +13°C° 0 mm 5 m/S 745 mmHg 58%
05:00 +13°C° 0 mm 5 m/S 745 mmHg 59%
06:00 +14°C° 0 mm 6 m/S 745 mmHg 57%
07:00 +14°C° 0 mm 6 m/S 745 mmHg 56%
08:00 +14°C° 0 mm 6 m/S 745 mmHg 54%
09:00 +16°C° 0 mm 7 m/S 745 mmHg 52%
10:00 +17°C° 0 mm 7 m/S 746 mmHg 51%
11:00 +18°C° 0 mm 7 m/S 746 mmHg 49%
12:00 +18°C° 0 mm 7 m/S 746 mmHg 49%
13:00 +20°C° 0 mm 7 m/S 746 mmHg 49%
14:00 +20°C° 0 mm 7 m/S 746 mmHg 48%
15:00 +18°C° 0.2 mm 7 m/S 745 mmHg 54%
16:00 +16°C° 0.2 mm 6 m/S 745 mmHg 61%
17:00 +15°C° 0.2 mm 6 m/S 745 mmHg 67%
18:00 +14°C° 0.3 mm 6 m/S 745 mmHg 69%
19:00 +14°C° 0.3 mm 6 m/S 745 mmHg 70%
20:00 +14°C° 0.3 mm 6 m/S 745 mmHg 72%
21:00 +14°C° 0.6 mm 6 m/S 745 mmHg 74%
22:00 +13°C° 0.6 mm 5 m/S 745 mmHg 76%
23:00 +13°C° 0.6 mm 5 m/S 745 mmHg 77%

Morgen, 28 September, Montag

Zeit Temperatur Niederschläge Wind Luftdruck Luftfeuchtigkeit
00:00 +13°C° 1 mm 5 m/S 745 mmHg 81%
01:00 +13°C° 1 mm 5 m/S 745 mmHg 85%
02:00 +13°C° 1 mm 6 m/S 745 mmHg 90%
03:00 +13°C° 0 mm 5 m/S 746 mmHg 90%
04:00 +13°C° 0 mm 5 m/S 746 mmHg 90%
05:00 +13°C° 0 mm 4 m/S 747 mmHg 90%
06:00 +13°C° 0 mm 4 m/S 747 mmHg 89%
07:00 +13°C° 0 mm 4 m/S 748 mmHg 89%
08:00 +13°C° 0 mm 3 m/S 748 mmHg 89%
09:00 +14°C° 0 mm 3 m/S 749 mmHg 82%
10:00 +16°C° 0 mm 3 m/S 749 mmHg 75%
11:00 +17°C° 0 mm 3 m/S 750 mmHg 68%
12:00 +17°C° 0 mm 2 m/S 750 mmHg 65%
13:00 +17°C° 0 mm 2 m/S 750 mmHg 62%
14:00 +18°C° 0 mm 2 m/S 750 mmHg 59%
15:00 +18°C° 0 mm 1 m/S 750 mmHg 64%
16:00 +16°C° 0 mm 1 m/S 750 mmHg 69%
17:00 +15°C° 0 mm 1 m/S 750 mmHg 73%
18:00 +14°C° 0 mm 1 m/S 750 mmHg 75%
19:00 +12°C° 0 mm 0 m/S 750 mmHg 77%
20:00 +12°C° 0 mm 0 m/S 750 mmHg 79%
21:00 +13°C° 0 mm 1 m/S 750 mmHg 81%
22:00 +12°C° 0 mm 1 m/S 750 mmHg 82%
23:00 +12°C° 0 mm 1 m/S 750 mmHg 84%

übermorgen, 29 September, Dienstag

Zeit Temperatur Niederschläge Wind Luftdruck Luftfeuchtigkeit
00:00 +12°C° 0 mm 1 m/S 750 mmHg 86%
01:00 +12°C° 0 mm 2 m/S 750 mmHg 89%
02:00 +12°C° 0 mm 2 m/S 750 mmHg 92%
03:00 +12°C° 0 mm 2 m/S 750 mmHg 90%
04:00 +12°C° 0 mm 2 m/S 749 mmHg 89%
05:00 +12°C° 0 mm 2 m/S 749 mmHg 88%
06:00 +13°C° 0 mm 2 m/S 749 mmHg 83%
07:00 +12°C° 0 mm 3 m/S 749 mmHg 78%
08:00 +13°C° 0 mm 3 m/S 749 mmHg 73%
09:00 +14°C° 0 mm 3 m/S 749 mmHg 68%
10:00 +15°C° 0 mm 4 m/S 749 mmHg 64%
11:00 +17°C° 0 mm 4 m/S 749 mmHg 59%
12:00 +18°C° 0 mm 4 m/S 748 mmHg 59%
13:00 +18°C° 0 mm 4 m/S 748 mmHg 59%
14:00 +18°C° 0 mm 4 m/S 748 mmHg 59%
15:00 +18°C° 0 mm 4 m/S 748 mmHg 59%
16:00 +17°C° 0 mm 4 m/S 747 mmHg 60%
17:00 +15°C° 0 mm 4 m/S 747 mmHg 60%
18:00 +14°C° 0 mm 4 m/S 747 mmHg 59%
19:00 +14°C° 0 mm 4 m/S 747 mmHg 57%
20:00 +13°C° 0 mm 4 m/S 747 mmHg 56%
21:00 +13°C° 0 mm 4 m/S 747 mmHg 57%
22:00 +12°C° 0 mm 4 m/S 747 mmHg 59%
23:00 +12°C° 0 mm 4 m/S 747 mmHg 60%

30 September, Mittwoch

Zeit Temperatur Niederschläge Wind Luftdruck Luftfeuchtigkeit
00:00 +11°C° 0 mm 4 m/S 746 mmHg 59%
01:00 +11°C° 0 mm 4 m/S 746 mmHg 59%
02:00 +11°C° 0 mm 4 m/S 746 mmHg 59%
03:00 +11°C° 0 mm 4 m/S 746 mmHg 58%
04:00 +10°C° 0 mm 4 m/S 746 mmHg 57%
05:00 +9°C° 0 mm 5 m/S 746 mmHg 56%
06:00 +9°C° 0 mm 5 m/S 746 mmHg 56%
07:00 +10°C° 0 mm 5 m/S 745 mmHg 55%
08:00 +10°C° 0 mm 5 m/S 745 mmHg 55%
09:00 +13°C° 0 mm 5 m/S 745 mmHg 53%
10:00 +14°C° 0 mm 6 m/S 745 mmHg 51%
11:00 +15°C° 0 mm 6 m/S 745 mmHg 49%
12:00 +16°C° 0 mm 6 m/S 745 mmHg 49%
13:00 +16°C° 0 mm 6 m/S 745 mmHg 48%
14:00 +17°C° 0 mm 6 m/S 745 mmHg 47%
15:00 +16°C° 0 mm 5 m/S 745 mmHg 48%
16:00 +15°C° 0 mm 5 m/S 745 mmHg 49%
17:00 +14°C° 0 mm 5 m/S 744 mmHg 50%
18:00 +14°C° 0 mm 5 m/S 744 mmHg 49%
19:00 +13°C° 0 mm 5 m/S 745 mmHg 48%
20:00 +13°C° 0 mm 5 m/S 745 mmHg 47%
21:00 +12°C° 0 mm 5 m/S 744 mmHg 47%
22:00 +12°C° 0 mm 5 m/S 744 mmHg 48%
23:00 +10°C° 0 mm 5 m/S 744 mmHg 48%

1 Oktober, Donnerstag

Zeit Temperatur Niederschläge Wind Luftdruck Luftfeuchtigkeit
00:00 +10°C° 0 mm 5 m/S 744 mmHg 49%
01:00 +10°C° 0 mm 5 m/S 744 mmHg 49%
02:00 +9°C° 0 mm 5 m/S 744 mmHg 50%
03:00 +9°C° 0 mm 5 m/S 744 mmHg 51%
04:00 +9°C° 0 mm 5 m/S 744 mmHg 52%
05:00 +9°C° 0 mm 6 m/S 744 mmHg 53%
06:00 +10°C° 0 mm 6 m/S 744 mmHg 54%
07:00 +11°C° 0 mm 6 m/S 744 mmHg 55%
08:00 +11°C° 0 mm 7 m/S 744 mmHg 56%
09:00 +12°C° 0 mm 7 m/S 744 mmHg 55%
10:00 +14°C° 0 mm 7 m/S 744 mmHg 53%
11:00 +15°C° 0 mm 7 m/S 745 mmHg 52%
12:00 +15°C° 0 mm 7 m/S 745 mmHg 54%
13:00 +15°C° 0 mm 7 m/S 745 mmHg 55%
14:00 +15°C° 0 mm 7 m/S 745 mmHg 56%
15:00 +15°C° 0 mm 6 m/S 745 mmHg 58%
16:00 +14°C° 0 mm 5 m/S 745 mmHg 59%
17:00 +13°C° 0 mm 4 m/S 745 mmHg 60%
18:00 +13°C° 0 mm 4 m/S 746 mmHg 58%
19:00 +13°C° 0 mm 4 m/S 746 mmHg 56%
20:00 +13°C° 0 mm 4 m/S 746 mmHg 53%
21:00 +13°C° 0 mm 5 m/S 746 mmHg 52%
22:00 +13°C° 0 mm 5 m/S 746 mmHg 50%
23:00 +13°C° 0 mm 5 m/S 746 mmHg 49%

2 Oktober, Freitag

Zeit Temperatur Niederschläge Wind Luftdruck Luftfeuchtigkeit
00:00 +13°C° 0 mm 5 m/S 746 mmHg 49%
01:00 +13°C° 0 mm 5 m/S 746 mmHg 49%
02:00 +13°C° 0 mm 5 m/S 746 mmHg 50%
03:00 +12°C° 0 mm 5 m/S 746 mmHg 51%
04:00 +12°C° 0 mm 5 m/S 746 mmHg 53%
05:00 +10°C° 0 mm 5 m/S 746 mmHg 55%
06:00 +12°C° 0 mm 5 m/S 746 mmHg 55%
07:00 +12°C° 0 mm 5 m/S 747 mmHg 56%
08:00 +12°C° 0 mm 5 m/S 747 mmHg 57%
09:00 +13°C° 0 mm 6 m/S 747 mmHg 55%
10:00 +14°C° 0 mm 6 m/S 747 mmHg 53%
11:00 +15°C° 0 mm 6 m/S 747 mmHg 51%
12:00 +15°C° 0 mm 6 m/S 747 mmHg 53%
13:00 +15°C° 0 mm 5 m/S 747 mmHg 56%
14:00 +14°C° 0 mm 5 m/S 748 mmHg 58%
15:00 +13°C° 0.1 mm 4 m/S 748 mmHg 64%
16:00 +12°C° 0.1 mm 4 m/S 748 mmHg 70%
17:00 +11°C° 0.1 mm 3 m/S 748 mmHg 76%
18:00 +11°C° 0 mm 3 m/S 748 mmHg 76%
19:00 +12°C° 0 mm 2 m/S 748 mmHg 76%
20:00 +12°C° 0 mm 2 m/S 748 mmHg 76%
21:00 +11°C° 0 mm 3 m/S 748 mmHg 77%
22:00 +11°C° 0 mm 3 m/S 748 mmHg 78%
23:00 +11°C° 0 mm 4 m/S 749 mmHg 80%
Mehr zeigen